Back to catalog

ELEKTRON 1 DEB

AliveUNKNOWN
NORAD 750·DEBRIS·🇷🇺 Russia

Launched Jan 30, 1964 from Baikonur Cosmodrome

Loading…

Next Passes (next 24 hours)

TLE

FreshSource: Space-Track

Epoch: Sep 14, 2026, 03:50 UTC

1 00750U 64006C   26257.15977706  .00014772  00000-0  13622-2 0  9999
2 00750  60.7426 123.4663 1373676 107.5850 267.9592 12.53866345857804

Track ELEKTRON 1 DEB in real time with AllMySat

Download on the App Store